Location: La Brionne
(46.1728°N, 1.7849°E)
Time: 21:59:04
(UTC+00:00)

Cosmos 1452 Rocket - Pass Details

Date: 16 June 2021
Orbit: 768 x 774 km, 74.1° (Epoch: 01 August)

Event Time Altitude Azimuth Distance (km) Brightness Sun altitude
Rises 20:53:51 0° 195° (SSW) 3,236 6.4 -9.4°
Reaches altitude 10° 20:56:13 10° 193° (SSW) 2,313 5.6 -9.7°
Maximum altitude 21:01:28 76° 109° (ESE) 801 3.5 -10.3°
Drops below altitude 10° 21:06:45 10° 25° (NNE) 2,327 6.4 -10.8°
Sets 21:09:08 0° 24° (NNE) 3,258 7.2 -11.1°
